Regional Weather Roundup
Issued by NWS

Home | Current Version | Previous Version | Graphics & Text | Print | Product List | Glossary On
Versions: 1 2 3 4 5 6 7 8 9 10 11 12 13 14 15 16 17 18 19 20 21 22 23 24 25 26 27 28 29 30 31 32 33 34 35 36 37 38 39 40 41 42 43 44 45 46 47 48 49 50
000
ASUS44 KMEG 181100
RWRTN
TENNESSEE HOURLY STATE WEATHER ROUNDUP
NATIONAL WEATHER SERVICE MEMPHIS TN
500 AM CST MON DEC 18 2017

TNZ002-004-019-021-049-052-054-088>092-181200-
WEST TENNESSEE

CITY           SKY/WX    TMP DP  RH WIND       PRES   REMARKS
MEMPHIS INTL   CLOUDY    45  44  97 W7        30.15R FOG
NWS MEMPHIS      N/A     45 N/A N/A MISG        N/A
JACKSON        CLOUDY    47  47 100 SW6       30.14S
DYERSBURG      CLOUDY    45  45 100 SW7       30.15R
$$

TNZ008-025-027-028-033-062-065-066-181200-
NORTH MIDDLE TENNESSEE

CITY           SKY/WX    TMP DP  RH WIND       PRES   REMARKS
NASHVILLE      CLOUDY    47  46  97 CALM      30.14F FOG
CLARKSVILLE    CLOUDY    46  44  93 SW3       30.14R FOG
SMYRNA         CLOUDY    47  46  97 SE5       30.16F FOG
CROSSVILLE     CLOUDY    44  43  96 SW3       30.15R FOG
$$

TNZ061-075-076-078-094-096-097-181200-
SOUTH MIDDLE TENNESSEE

CITY           SKY/WX    TMP DP  RH WIND       PRES   REMARKS
$$

TNZ017-018-042-046-047-181200-
NORTHEAST TENNESSEE

CITY           SKY/WX    TMP DP  RH WIND       PRES   REMARKS
TRI CITIES     FOG       39  39 100 CALM      30.17R VSB 1
$$

TNZ012-013-036-069-073-074-181200-
CENTRAL EAST TENNESSEE

CITY           SKY/WX    TMP DP  RH WIND       PRES   REMARKS
KNOXVILLE      DRZL/FOG  41  41 100 CALM      30.17R VSB 1
OAK RIDGE      CLOUDY    42  42 100 CALM      30.19R FOG
$$

TNZ083-085-099-181200-
SOUTHEAST TENNESSEE

CITY           SKY/WX    TMP DP  RH WIND       PRES   REMARKS
CHATTANOOGA    FOG       43  42  97 CALM      30.18R VSB 1/2
$$

SKY/WX REPORTED AS FAIR MEANS FEW OR NO CLOUDS BELOW
12 THOUSAND FEET.




USA.gov is the U.S. government's official web portal to all federal, state and local government web resources and services.